Location: Bonnesvalyn
(49.1218°N, 3.3177°E)
Time: 19:45:42
(UTC+00:00)

Cosmos 2074 Rocket - Pass Details

Date: 09 February 2023
Orbit: 967 x 986 km, 82.9° (Epoch: 26 March)

Event Time Altitude Azimuth Distance (km) Brightness Sun altitude
Rises 18:52:23 0° 354° (N) 3,703 7.1 -19.3°
Reaches altitude 10° 18:55:03 10° 1° (N) 2,753 6.4 -19.8°
Maximum altitude 19:01:05 45° 73° (ENE) 1,318 4.2 -20.8°
Enters shadow 19:03:00 35° 116° (ESE) 1,528 4.5 -21.1°
